Location: San Gennaro Vesuviano
(40.8833°N, 14.5333°E)
Time: 22:55:28
(UTC+00:00)

SJ-6B - Pass Details

Date: 22 April 2021
Orbit: 510 x 580 km, 97.6° (Epoch: 10 May)

Event Time Altitude Azimuth Distance (km) Brightness Sun altitude
Exits shadow 19:12:32 - 183° (S) 1,879 5.3 -15.1°
Reaches altitude 10° 19:12:55 10° 185° (S) 1,725 5.1 -15.2°
Maximum altitude 19:16:30 48° 260° (W) 678 3.6 -15.8°
Drops below altitude 10° 19:20:10 10° 336° (NNW) 1,754 6.3 -16.4°
Sets 19:22:20 0° 342° (NNW) 2,654 7.2 -16.7°
